Change the Weather History Date:

Sunday, December 29, 2013

  Actual Average Record
Temperature  
Mean Temperature 38 °F -  
Max Temperature 45 °F 44 °F 55 °F (1997)
Min Temperature 30 °F 33 °F 21 °F (1996)
Degree Days  
Heating Degree Days 28    
Moisture  
Dew Point 39 °F    
Average Humidity 95    
Maximum Humidity 100    
Minimum Humidity 83    
Precipitation  
Precipitation 0.00 in 0.19 in - ()
Sea Level Pressure  
Sea Level Pressure 30.39 in    
Wind  
Wind Speed 3 mph ()    
Max Wind Speed 7 mph    
Max Gust Speed -    
Visibility 9.3 miles    
Events Rain    
Averages and records for this station are not official NWS values.
T = Trace of Precipitation, MM = Missing Value Source: Averaged Metar Reports

Daily Weather History Graph

Daily Weather History Graph

Search for Another Location

Airport or City:

Trip Planner

Search our weather history database for the weather conditions in past years. The results will help you decide how hot, cold, wet, or windy it might be!

Date:

Astronomy

Dec. 29, 2013 Rise Set
Actual Time 8:06 AM PST 4:25 PM PST
Civil Twilight 7:29 AM PST 5:02 PM PST
Nautical Twilight 6:49 AM PST 5:43 PM PST
Astronomical Twilight 6:10 AM PST 6:21 PM PST
Moon 4:49 AM PST (12/29) 2:14 PM PST (12/29)
Length of Visible Light 9h 33m
Length of Day
8h 19m
Waning Crescent, 10% of the Moon is Illuminated
Dec 29
Waning Crescent
Jan 1
New
Jan 7
First Quarter
Jan 15
Full
Jan 23
Last Quarter

Hourly Weather History & Observations

Time (PST) Temp. Windchill Dew Point Humidity Pressure Visibility Wind Dir Wind Speed Gust Speed Precip Events Conditions
12:00 AM 30.2 °F 25.4 °F 30.2 °F 100% 30.50 in 20.0 mi West 4.6 mph - N/A   Scattered Clouds
1:00 AM 35.6 °F 30.7 °F 35.6 °F 100% 30.49 in 2.0 mi WSW 5.8 mph - N/A   Partly Cloudy
2:00 AM 32.0 °F 28.7 °F 32.0 °F 100% 30.48 in 4.0 mi WSW 3.5 mph - N/A   Scattered Clouds
3:00 AM 32.0 °F - 32.0 °F 100% 30.46 in 4.0 mi West 2.3 mph - N/A   Overcast
4:00 AM 34 °F - 34 °F 99% 30.45 in 4 mi SW 2.3 mph - -   Mist
4:00 AM 33.8 °F - 33.8 °F 100% 30.45 in 4.0 mi WSW 2.3 mph - N/A   Overcast
4:21 AM 35.6 °F - 35.6 °F 100% 30.43 in 6.0 mi Calm Calm - N/A   Overcast
5:00 AM 35.6 °F - 35.6 °F 100% 30.43 in 8.0 mi WSW 2.3 mph - N/A   Overcast
6:00 AM 35.6 °F 32.8 °F 35.6 °F 100% 30.41 in 12.0 mi SW 3.5 mph - N/A   Overcast
7:00 AM 37.4 °F - 37.4 °F 100% 30.40 in 15.0 mi Calm Calm - N/A   Overcast
8:00 AM 37.4 °F - 37.4 °F 100% 30.40 in 15.0 mi SW 2.3 mph - N/A   Overcast
9:00 AM 39.2 °F - 39.2 °F 100% 30.41 in 30.0 mi NNE 2.3 mph - N/A   Overcast
10:00 AM 40 °F - 40 °F 99% 30.42 in 19 mi SSE 1.2 mph - -   Partly Cloudy
10:00 AM 41.0 °F - 39.2 °F 93% 30.42 in 20.0 mi Calm Calm - N/A   Mostly Cloudy
11:00 AM 42.8 °F 41.1 °F 41.0 °F 93% 30.40 in 30.0 mi SSE 3.5 mph - N/A   Mostly Cloudy
12:00 PM 44.6 °F 42.2 °F 41.0 °F 87% 30.39 in 30.0 mi SSE 4.6 mph - N/A   Mostly Cloudy
1:00 PM 42.8 °F 40.1 °F 41.0 °F 93% 30.38 in 30.0 mi West 4.6 mph - N/A   Overcast
2:00 PM 44.6 °F 42.2 °F 41.0 °F 87% 30.37 in 30.0 mi East 4.6 mph - N/A   Overcast
3:00 PM 44.6 °F 40.7 °F 42.8 °F 93% 30.35 in 30.0 mi SE 6.9 mph - N/A   Mostly Cloudy
4:00 PM 45 °F - 42 °F 83% 30.36 in 28 mi ESE 5.8 mph - -   Overcast
4:00 PM 44.6 °F 41.4 °F 41.0 °F 87% 30.36 in 30.0 mi SE 5.8 mph - N/A   Overcast
5:00 PM 44.6 °F 43.1 °F 41.0 °F 87% 30.36 in 30.0 mi SE 3.5 mph - N/A   Overcast
6:00 PM 42.8 °F - 41.0 °F 93% 30.35 in 30.0 mi SE 2.3 mph - N/A   Overcast
7:00 PM 42.8 °F - 41.0 °F 93% 30.35 in 30.0 mi Calm Calm - N/A   Overcast
7:31 PM 42.8 °F 41.1 °F 41.0 °F 93% 30.35 in 30.0 mi SE 3.5 mph - N/A Rain Light Rain
8:00 PM 42.8 °F 40.1 °F 42.8 °F 100% 30.35 in 20.0 mi ESE 4.6 mph - N/A Rain Light Rain
8:21 PM 42.8 °F 41.1 °F 42.8 °F 100% 30.35 in 20.0 mi SE 3.5 mph - N/A   Overcast
9:00 PM 42.8 °F 41.1 °F 41.0 °F 93% 30.35 in 30.0 mi SE 3.5 mph - N/A   Overcast
9:08 PM 42.8 °F 41.1 °F 41.0 °F 93% 30.35 in 8.0 mi SE 3.5 mph - N/A   Overcast
10:00 PM 42 °F - 42 °F 98% 30.35 in 3 mi SSW 2.3 mph - -   Partly Cloudy
10:00 PM 42.8 °F - 41.0 °F 93% 30.34 in 3.0 mi SW 2.3 mph - N/A   Overcast
10:29 PM 42.8 °F - 41.0 °F 93% 30.35 in 3.0 mi SW 2.3 mph - N/A Rain Light Rain
11:00 PM 42.8 °F - 41.0 °F 93% 30.34 in 3.0 mi North 2.3 mph - N/A   Overcast
11:40 PM 42.8 °F - 41.0 °F 93% 30.33 in 3.0 mi South 2.3 mph - N/A   Light Drizzle